星链-31250 (STARLINK-31250 )

导读

STARLINK-31250是美国太空探索技术公司Starlink卫星互联网星座的成员,于2024年1月24日发射升空。该卫星属于Starlink Gen2系列,主要用于提供全球覆盖的低轨宽带互联网服务,依托星链星座庞大的组网规模,可为偏远地区、移动载体等场景提供稳定网络接入,支撑卫星互联网的全球服务能力拓展。

Basic Information
目录编号:
58839
目录名称:
STARLINK-31250
国际标识:
2024-017P
轨道中心:
EARTH
卫星名称:
星链-31250
卫星全名:
星链-31250 (STARLINK-31250 )
卫星状态:
在轨 (已飞行961 天)
发射日期:
2024-01-24 UTC
国别 :
美国 (US)
星等 :
--
This satellite is enrolled in the Space Conjunction Data Service (SCDS) and the current flight risk assessment level is: No High Risk
Orbit Information
数据来源 国际轨道数据
星历时间: 2026-09-11T19:13:57+0800
9小时前
查看轨道信息
半长轴: 6840.886km
偏心率: 0.0001247
轨道倾角: 53.161°
近地点辐角 97.170°
升交点赤经 47.631°
平近点角 262.944°
近地点: 461.895km
远地点: 463.603km
周期: 93.849分钟
每日圈数: 15.343847
Detailed Information
固有亮度:
5
最大亮度:
0.3
卫星平台:
Starlink v2.0 mini
覆盖范围:
全球
运营商:
太空探索技术公司
运营商所在国:
美国
制造商(研发单位):
太空探索技术公司
制造商所在国:
美国
使用方式:
暂无
Satellite Introduction
星链(Starlink)计划是由太空探索技术公司(SpaceX)提出的一个巨型低轨卫星互联网星座项目,计划在2019年至2024年间在太空搭建由约1.2万颗卫星组成的“星链”网络,其中1584颗将部署在地球上空550千米处的近地轨道,并从2020年开始工作。该卫星仍在工作。
2D Orbit Map
3D Orbit Map
Orbit Altitude Analysis Chart
Orbit Inclination Analysis Chart
Orbit Comprehensive Analysis Chart
View Comprehensive Chart
Conjunction Data List
Event ID Objects TCA Miss Dist (km) Collision Risk Probability Collision Risk Index (CRI) Action
CDM_260913-115905-883906-466921
2026-09-13T
11:59:19+0000
0.281 km
中距离
3.997482E-4 高风险 0.87
CDM_260913-220805-883906-466921
2026-09-13T
22:08:58+0000
1.453 km
极远距离
4.394819E-6 低风险 0.48
CDM_260913-234205-883906-466921
2026-09-13T
23:42:46+0000
1.568 km
极远距离
3.456462E-6 低风险 0.46
CDM_260913-060805-172405-883922
2026-09-13T
06:08:38+0000
2.470 km
极远距离
1.584727E-6 低风险 0.39
CDM_260913-133305-883906-466921
2026-09-13T
13:33:07+0000
2.106 km
极远距离
1.562153E-6 低风险 0.39
CDM_260913-102505-883906-466921
2026-09-13T
10:25:32+0000
2.594 km
极远距离
1.048911E-6 低风险 0.35
Miss Distance Evolution Trend with All Objects
Collision Probability Evolution Trend with All Objects